Location: Newark
(41.6500°N, 71.4833°W)
Time: 00:06:53
(UTC+00:00)

deb Explorer IX - Pass Details

Date: 24 January 2020
Orbit: 549 x 1099 km, 38.8° (Epoch: 20 February)

Event Time Altitude Azimuth Distance (km) Brightness Sun altitude
Rises 01:11:23 0° 200° (SSW) 3,686 ? -37.5°
Enters shadow 01:12:49 - 194° (SSW) 3,292 ? -37.7°
Reaches altitude 10° 01:14:47 10° 183° (S) 2,818 - -38.1°
Maximum altitude 01:19:25 19° 141° (SE) 2,297 - -39.0°
Drops below altitude 10° 01:24:12 10° 100° (E) 2,943 - -39.8°
Sets 01:27:50 0° 84° (E) 3,907 - -40.5°
